OH6GPB-4 Weather Reports


time (UTC)temp
C
wind
direction
speed
KPH
gust
KPH
rain 1hr
cm
rain 24hr
cm
rain mn
cm
humidity
%
barometer
mb
20260508101731 11 293 6.4 17.7 0.00 0.00 0.00 29 1024.1
20260508094737 11 297 14.5 17.7 0.00 0.00 0.00 30 1024.1
20260508091736 10 276 9.7 17.7 0.00 0.00 0.00 32 1024.0
20260508084727 10 291 3.2 20.9 0.00 0.00 0.00 32 1023.7
20260508081734 10 274 6.4 16.1 0.00 0.00 0.00 38 1023.6
20260508074721 9 274 6.4 17.7 0.00 0.00 0.00 43 1023.2
20260508071736 9 269 0.0 16.1 0.00 0.00 0.00 49 1023.1
20260508064736 8 251 1.6 6.4 0.00 0.00 0.00 57 1022.7
20260508061723 7 283 3.2 6.4 0.00 0.00 0.00 67 1022.3
20260508054726 6 283 1.6 9.7 0.00 0.00 0.00 78 1022.0
20260508051721 5 283 6.4 9.7 0.00 0.00 0.00 86 1021.6
20260508044730 5 281 0.0 4.8 0.00 0.00 0.00 94 1021.3
20260508041737 3 281 0.0 0.0 0.00 0.00 0.00 95 1021.0
20260508034725 1 281 0.0 0.0 0.00 0.00 0.00 95 1020.6
20260508031723 0 281 0.0 0.0 0.00 0.00 0.00 94 1020.5
20260508024733 0 281 0.0 0.0 0.00 0.00 0.00 94 1020.1
20260508021728 -1 281 0.0 0.0 0.00 0.00 0.00 93 1019.8
20260508014731 -1 281 0.0 0.0 0.00 0.00 0.00 92 1019.6
20260508011722 -1 281 0.0 0.0 0.00 0.00 0.00 92 1019.4
20260508004737 -1 281 0.0 0.0 0.00 0.00 0.00 91 1019.2
20260508001729 -1 281 0.0 0.0 0.00 0.00 0.00 91 1018.9
20260507234725 -1 281 0.0 0.0 0.00 0.00 0.00 91 1018.8
20260507231742 -1 281 0.0 0.0 0.00 0.00 0.00 90 1018.4
20260507224737 -1 281 0.0 0.0 0.00 0.00 0.00 90 1018.0
20260507221735 0 281 0.0 0.0 0.00 0.00 0.00 89 1017.9
20260507214729 0 281 0.0 0.0 0.00 0.00 0.00 88 1017.6
20260507211723 0 281 0.0 0.0 0.00 0.00 0.00 87 1017.4
20260507204733 1 281 0.0 0.0 0.00 0.00 0.00 86 1017.0
20260507201724 1 281 0.0 0.0 0.00 0.00 0.00 84 1016.7
20260507194733 2 281 0.0 0.0 0.00 0.00 0.00 84 1016.3
20260507191725 3 281 0.0 0.0 0.00 0.00 0.00 82 1016.2
20260507184721 3 281 0.0 3.2 0.00 0.00 0.00 80 1015.9
20260507181722 4 281 0.0 6.4 0.00 0.00 0.00 77 1015.8
20260507174721 5 285 4.8 11.3 0.00 0.00 0.00 74 1015.7
20260507171734 5 256 3.2 17.7 0.00 0.00 0.00 73 1015.4
20260507164726 5 285 3.2 19.3 0.00 0.00 0.00 75 1015.3
20260507161723 5 283 8.0 19.3 0.00 0.00 0.00 73 1015.1
20260507154741 5 276 11.3 19.3 0.00 0.00 0.00 71 1014.8
20260507151733 5 311 14.5 25.7 0.00 0.00 0.00 72 1014.5
20260507144731 6 274 9.7 24.1 0.00 0.00 0.00 65 1014.2
20260507141735 6 276 12.9 29.0 0.00 0.00 0.00 61 1014.0
20260507134731 7 296 12.9 24.1 0.00 0.00 0.00 54 1013.7
20260507131728 7 303 6.4 16.1 0.00 0.00 0.00 55 1013.3
20260507124722 8 304 1.6 9.7 0.00 0.00 0.00 49 1013.2
20260507121737 8 341 0.0 11.3 0.00 0.00 0.00 48 1013.0
20260507114719 7 274 6.4 19.3 0.00 0.00 0.00 64 1013.1
20260507111733 7 286 3.2 11.3 0.00 0.00 0.00 59 1012.7
20260507104729 9 169 1.6 12.9 0.00 0.00 0.00 34 1012.8